Regional Weather Roundup
Issued by NWS Charleston, SC

Home | Current Version | Previous Version | Text Only | Print | Product List | Glossary On
Versions: 1 2 3 4 5 6 7 8 9 10 11 12 13 14 15 16 17 18 19 20 21 22 23 24 25 26 27 28 29 30 31 32 33 34 35 36 37 38 39 40 41 42 43 44 45 46 47 48 49 50
000
ASUS42 KCHS 271126
RWRCHS

REGIONAL WEATHER ROUNDUP
NATIONAL WEATHER SERVICE CHARLESTON SC
600 AM EST FRI FEB 27 2015

NOTE: "FAIR" INDICATES FEW OR NO CLOUDS BELOW 12,000 FEET WITH NO
SIGNIFICANT WEATHER AND/OR OBSTRUCTIONS TO VISIBILITY.

NOT ALL STATIONS ARE QUALITY CONTROLLED BY THE NATIONAL
WEATHER SERVICE. USE DATA WITH CAUTION...ESPECIALLY
DEWPOINT OBSERVATIONS.

SCZ027-030-031-034>040-042>050-271200-
...SOUTHEAST SOUTH CAROLINA...

CITY           SKY/WX    TMP DP  RH WIND       PRES   REMARKS
N CHARLESTON   MOCLDY    35  32  88 NE5       30.26R WCI  31
WATERFRONT PRK NOT AVBL
MOUNT PLEASANT LGT RAIN  36  36 100 CALM      30.27R
PINOPOLIS        N/A     39  34  81 NE7       30.18R WCI  34
MONCKS CORNER  FAIR      36  34  93 CALM      30.27R
SUMMERVILLE    NOT AVBL
BEAUFORT MCAS  MOCLDY    39  35  86 NE5       30.25R WCI  36
BEAUFORT ARPT  FAIR      39  36  87 N9        30.25R WCI  33
HILTON HEAD IS NOT AVBL
WALTERBORO     MOSUNNY   34  34 100 CALM      30.28R FOG
ALLENDALE      FAIR      37  36  93 CALM      30.26R

...SOUTHERN MIDLANDS AND PEE DEE...

CITY           SKY/WX    TMP DP  RH WIND       PRES   REMARKS
GEORGETOWN     NOT AVBL
KINGSTREE      NOT AVBL
ORANGEBURG     MOCLDY    33  30  88 CALM      30.26R FOG
BARNWELL       CLOUDY    36  36 100 CALM      30.27R
AIKEN          CLOUDY    37  37 100 CALM      30.28R
MANNING        FAIR     N/A N/A N/A CALM      30.28R HAZE
COLUMBIA       CLOUDY    39  35  86 CALM      30.26R
SUMTER         PTCLDY    31  29  92 NW2       30.25R
FLORENCE       MOCLDY    32  29  88 CALM      30.26R
MYRTLE BEACH   MOCLDY    34  30  86 MISG      30.28R
N MYRTLE BEACH MOCLDY    33  31  92 CALM      30.26R

$$

GAZ063-065-086>088-099>101-113>116-118-119-134>141-150-271200-
...SOUTHEAST GEORGIA...

CITY           SKY/WX    TMP DP  RH WIND       PRES   REMARKS
SAVANNAH ARPT  CLOUDY    39  35  86 NE6       30.24R WCI  35
HUNTER AAF     CLOUDY    40  36  85 N5        30.21R WCI  37
FORT STEWART   CLOUDY    39  37  94 N2        30.22R
STATESBORO     MOCLDY    37  37 100 CALM      30.26R FOG
SYLVANIA       PTSUNNY   37  37 100 CALM      30.27R FOG
CLAXTON        FAIR      37  37 100 CALM      30.25R FOG

...CSRA...CENTRAL AND FAR SOUTHEAST GEORGIA...

CITY           SKY/WX    TMP DP  RH WIND       PRES   REMARKS
THOMSON        CLOUDY    40  40 100 CALM      30.29R
AUGUSTA-BUSH   CLOUDY    40  37  89 E3        30.25R
AUGUSTA-DANIEL CLOUDY    42  37  82 CALM      30.24R
SWAINSBORO     PTSUNNY   41  37  87 CALM      30.26R
VIDALIA        CLOUDY    41  37  87 CALM      30.25R
EASTMAN        FAIR      36  36 100 CALM      30.28R
HAZLEHURST     CLOUDY    43  40  90 N7        30.24R
ALMA           CLOUDY    43  41  93 N6        30.22R
WAYCROSS       CLOUDY    47  44  89 NE6       30.22R
JESUP          FAIR      45  43  93 NE5       30.24R
BAXLEY         CLOUDY    45  41  87 N5        30.23R
BRUNSWICK      CLOUDY    43  39  87 N3        30.23S
SAINT SIMONS   CLOUDY    44  39  82 N7        30.22R

$$

SCZ027-028-034-036>038-045-046-048>050-GAZ119-141-271200-
...LAKE AND SUPPLEMENTAL COASTAL OBSERVATIONS...

STATION/POSITION TIME  TEMP    WIND        PRES    WAVE   SWELL
                       AIR SEA DIR/SP/G            HT/PER HT/PER/DIR
                 (UTC) (F)     (DEG/KT/KT) (MB)    (FT/S) (FT/S/D)
UPR LAKE MARION  NOT AVBL
WINYAH BAY       NOT AVBL
LAKE MURRAY      1100   38      CALM  /  2 1023.7R
ACE BASIN NERRS  NOT AVBL
FORT PULASKI     1000   42 49   10/  6/  8 1023.9R
SAPELO ISLAND    1000   44      20/  7     1023.0R

$$

ANZ835-935-AMZ111-154-330-350-352-354-370-450-454-472-271200-
...C-MAN AND BUOY OBSERVATIONS...

STATION/POSITION TIME  TEMP    WIND        PRES    WAVE   SWELL
                       AIR SEA DIR/SP/G            HT/PER HT/PER/DIR
                 (UTC) (F)     (DEG/KT/KT) (MB)    (FT/S) (FT/S/D)
BUOY 41004       1050   46 65   10/ 14/ 19 1023.2R   5/ 9   3/ 9
BUOY 41008       1050   46 52   20/ 17/ 21 1022.5R   3/ 9   2/110/ 9
FOLLY BEACH CMAN 1100   39      20/  8/ 10 1024.8R
CAPERS NEARSHORE NOT AVBL
FRIPP NEARSHORE  1000   42      20/ 14/ 16 1022.4R


STATION/POSITION TIME  TEMP    WIND        PRES    WAVE   SWELL
                       AIR SEA DIR/SP/G            HT/PER HT/PER/DIR
                 (UTC) (F)     (DEG/KT/KT) (MB)    (FT/S) (FT/S/D)
5E ST. MARYS GA  1021      53                N/A     4/ 6   2/110/11
FRYING PAN BUOY  1050   43 60   10/ 14/ 17 1024.4R   6/ 9   5/160/ 9
BUOY 41025       NOT AVBL
CAPE LOOKOUT NC  1100   34     360/  9/ 12 1024.3R
BUOY 41002       1050   62 70  330/ 12/ 16 1019.5R  10/ 8   8/240/ 8
BUOY 41010       1020   67 74   30/ 12/ 16 1018.2R
ST AUGUSTINE FL  1100   51      10/ 21/ 23 1021.7R


$$


USA.gov is the U.S. government's official web portal to all federal, state and local government web resources and services.